This demonstration page uses our WeatherBlox Daily Observations layout. Learn more.

41.55636, -103.73856

Hourly Observations for August 22, 2019

Temp ( °F °C ) Dew Point ( °F °C ) Humidity (%) Winds ( mph kmh ) Pressure ( in mb ) Visibility ( mi km ) Precip ( " mm )
12:59 am 00:59 Clear 72 22.3 58 14.6 62 62 ESE 9 15 30.02 1017 10 16.0934 0 0
1:58 am 01:58 Mostly Clear 68 19.8 58 14.4 71 71 SE 10 17 30.02 1017 10 16.0934 0 0
2:58 am 02:58 Mostly Clear 67 19.7 58 14.3 71 71 SE 8 13 30.05 1018 10 16.0934 0 0
3:58 am 03:58 Mostly Cloudy 66 18.9 56 13.3 70 70 NNW 22 35 30.09 1019 10 16.0934 0 0
4:58 am 04:58 Mostly Cloudy with Light Showers 62 16.5 52 10.9 70 70 W 7 11 30.06 1018 10 16.0934 0 0
5:58 am 05:58 Cloudy with Light Showers 61 16.2 53 11.4 73 73 ENE 3 6 30.08 1019 10 16.0934 0.04 1.016
6:58 am 06:58 Mostly Cloudy 68 20.2 49 9.4 50 50 SE 16 26 29.96 1015 10 16.0934 0.01 0.254
7:58 am 07:58 Mostly Cloudy with Light Showers 61 15.9 55 12.6 81 81 S 14 22 29.96 1015 10 16.0934 0.01 0.254
8:58 am 08:58 Mostly Cloudy 62 16.4 53 11.5 73 73 SSE 25 41 29.91 1013 10 16.0934 0 0
9:58 am 09:58 Clear 62 16.5 52 11.2 71 71 S 9 15 29.89 1012 10 16.0934 0 0
10:58 am 10:58 Clear 60 15.6 52 11.3 76 76 SSW 14 22 29.89 1012 10 16.0934 0 0
11:58 am 11:58 Mostly Cloudy 62 16.5 54 12.4 77 77 SSW 18 30 29.89 1012 10 16.0934 0 0
12:58 pm 12:58 Mostly Sunny 62 16.5 53 11.7 73 73 SW 17 28 29.89 1012 10 16.0934 0 0
1:58 pm 13:58 Sunny 64 17.8 54 12.1 69 69 SSW 13 20 29.9 1013 10 16.0934 0 0
2:58 pm 14:58 Sunny 72 22.1 56 13.1 57 57 S 15 24 29.89 1012 10 16.0934 0 0
3:58 pm 15:58 Sunny 75 23.8 58 14.3 55 55 S 18 30 29.88 1012 10 16.0934 0 0
5:58 pm 17:58 Sunny 79 26.3 54 12.1 41 41 S 23 37 29.84 1011 10 16.0934 0 0
6:58 pm 18:58 Sunny 78 25.4 58 14.5 51 51 SSE 18 30 29.82 1010 10 16.0934 0 0
7:58 pm 19:58 Mostly Sunny 81 27.4 60 15.8 49 49 S 20 31 29.82 1010 10 16.0934 0 0
8:59 pm 20:59 Mostly Sunny 83 28.2 59 15.1 45 45 SSE 16 26 29.8 1009 10 16.0934 0 0
9:58 pm 21:58 Sunny 80 26.8 60 15.3 49 49 SSE 18 30 29.78 1009 10 16.0934 0 0
10:58 pm 22:58 Sunny 78 25.6 60 15.8 55 55 SSE 15 24 29.78 1009 10 16.0934 0 0
11:59 pm 23:59 Sunny 76 24.3 60 15.5 58 58 SSE 21 33 29.79 1009 10 16.0934 0 0

Powered by AerisWeather